[[{"header":{"parameterUnit":"m.s-1","parameterCategory":1,"la1":30.2991,"la2":30.254,"lo1":-89.0895,"lo2":-89.0444,"dy":0.0017,"dx":0.0017,"nx":28,"ny":28,"refTime":"2023-08-29T21:00:00:Z","depth":0,"parameterNumber":2,"parameterNumberName":"U-component_of_WINDS"},"data":[0,0,0,0,0,0,0,0,0,0,0,0,0,0,0,0,0,0,0,0,0,0,0,0,0,0,0,0,0,0,0,0,0,0,0,0,0,0,0,0,0,0,0,0,0,0,0,0,0,0,0,0,0,0,0,0,0,0,-1.7853,-1.7853,0,-1.7867,-1.7867,-1.7867,-1.7784,-1.7782,-1.778,-1.7777,-1.7797,-1.78,-1.7803,0,0,0,0,0,0,0,0,0,0,0,0,0,-1.7759,-1.7762,-1.7853,-1.7853,-1.7853,-1.7867,-1.7867,-1.7867,-1.7785,-1.7782,-1.7779,-1.7776,-1.7796,-1.78,-1.7803,0,0,0,0,0,0,0,0,0,0,0,0,0,-1.779,-1.7762,-1.7853,-1.7814,-1.781,-1.7867,-1.7867,-1.7867,-1.7785,-1.7782,-1.7778,-1.7775,-1.7795,-1.7799,-1.7803,-1.79,0,0,-1.7816,-1.7818,0,0,0,0,0,0,0,0,-1.7788,-1.7793,-1.7819,-1.7816,-1.7813,-1.782,-1.7841,-1.7878,-1.7786,-1.7795,-1.7777,-1.7773,-1.7808,-1.7811,-1.7821,-1.7901,-1.7902,-1.7816,-1.7819,-1.7821,-1.7822,0,0,0,0,0,0,0,-1.7786,-1.7792,-1.7858,-1.782,-1.7816,-1.7797,-1.7797,-1.7848,-1.7822,-1.7794,-1.7788,-1.779,-1.7806,-1.7818,-1.7821,-1.7902,-1.7816,-1.782,-1.7822,-1.7824,-1.8059,-1.8062,0,0,0,0,0,0,-1.7788,-1.7791,-1.7858,-1.7859,-1.7791,-1.7801,-1.7802,-1.7821,-1.7821,-1.7817,-1.7793,-1.7787,-1.7812,-1.7817,-1.7822,-1.7933,-1.782,-1.7824,-1.7827,-1.8055,-1.806,-1.8064,0,0,0,0,0,0,-1.7787,-1.7795,-1.7857,-1.7823,-1.783,-1.7807,-1.783,-1.7824,-1.7835,-1.782,-1.7816,-1.781,-1.781,-1.7816,-1.788,-1.7933,-1.7826,-1.783,-1.8051,-1.8057,-1.8062,-1.8158,0,0,0,0,0,0,-1.7784,-1.7795,-1.7831,-1.7824,-1.7832,-1.7915,-1.7833,-1.7826,-1.7842,-1.7833,-1.7835,-1.7832,-1.7808,-1.7874,-1.7884,-1.7937,-1.7833,-1.8046,-1.8053,-1.806,-1.815,-1.8166,-1.818,0,0,0,0,0,-1.7781,-1.7859,-1.7833,-1.7842,-1.7876,-1.7918,-1.7922,-1.7891,-1.7847,-1.7883,-1.7872,-1.7832,-1.7925,-1.7882,-1.7892,-1.7946,-1.8042,-1.8051,-1.8059,-1.8143,-1.8163,-1.818,0,0,0,0,0,0,-1.7875,-1.7858,-1.7829,-1.7906,-1.7914,-1.7904,-1.7949,-1.7913,-1.7936,-1.7927,-1.7889,-1.789,-1.796,-1.796,-1.7911,-1.8039,-1.7976,-1.7987,-1.8037,-1.8055,-1.807,-1.8069,-1.7837,0,0,0,0,0,-1.7904,-1.7938,-1.7922,-1.7992,-1.7997,-1.7973,-1.799,-1.7965,-1.7972,-1.7976,-1.797,-1.798,-1.8011,-1.8033,-1.8062,-1.8149,-1.8148,-1.8192,-1.8207,-1.8219,-1.8229,-1.8274,-1.8293,-1.8092,-1.8092,-1.8091,0,0,-1.7966,-1.7961,-1.7985,-1.8011,-1.8014,-1.8051,-1.7976,-1.8019,-1.8047,-1.7983,-1.8042,-1.8039,-1.8047,-1.8123,-1.8156,-1.8125,-1.8284,-1.823,-1.824,-1.8243,-1.8285,-1.8304,-1.8321,-1.8097,-1.8096,-1.8096,0,0,-1.8097,-1.8097,-1.8154,-1.8158,-1.8162,-1.8144,-1.8158,-1.8153,-1.8147,-1.8206,-1.8158,-1.8191,-1.8246,-1.8254,-1.8265,-1.8396,-1.8359,-1.8407,-1.8485,-1.853,-1.8546,-1.8559,-1.8605,-1.8622,-1.8417,-1.8417,-1.8417,0,-1.8174,-1.8227,-1.8189,-1.8234,-1.8247,-1.8188,-1.8246,-1.8252,-1.8267,-1.8277,-1.8241,-1.8307,-1.8309,-1.8385,-1.8417,-1.8428,-1.8443,-1.8406,-1.8546,-1.8559,-1.8572,-1.8615,-1.8633,-1.8422,-1.8422,-1.8421,-1.8421,0,-1.832,-1.8358,-1.8404,-1.8416,-1.8434,-1.8486,-1.8456,-1.8479,-1.8452,-1.8439,-1.8498,-1.8498,-1.8524,-1.854,-1.8516,-1.8613,-1.8593,-1.8552,-1.8489,-1.8597,-1.8637,-1.8654,-1.8431,-1.8429,-1.8427,-1.8425,0,0,-1.8513,-1.8501,-1.8519,-1.8522,-1.8522,-1.855,-1.8599,-1.8622,-1.8642,-1.8654,-1.8694,-1.8741,-1.8702,-1.8715,-1.869,-1.8729,-1.8832,-1.8683,-1.8683,-1.871,-1.8937,-1.8968,-1.8988,-1.8807,-1.881,-1.8812,-1.8936,0,-1.8641,-1.8721,-1.8688,-1.8772,-1.8805,-1.8749,-1.8791,-1.8796,-1.8784,-1.8812,-1.8799,-1.8833,-1.878,-1.8787,-1.8822,-1.8812,-1.8877,-1.8802,-1.8845,-1.8847,-1.8844,-1.9009,-1.9041,-1.9158,-1.8952,-1.8955,-1.8957,0,-1.8801,-1.8815,-1.8902,-1.8893,-1.8906,-1.8944,-1.8962,-1.8989,-1.8993,-1.8981,-1.8994,-1.896,-1.9008,-1.8944,-1.901,-1.896,-1.8975,-1.8972,-1.8976,-1.8979,-1.8908,-1.9016,-1.9195,-1.9212,-1.8981,-1.8979,-1.8977,0,-1.8931,-1.8973,-1.903,-1.9035,-1.9026,-1.9054,-1.9052,-1.9052,-1.9068,-1.9083,-1.9093,-1.9115,-1.9128,-1.9146,-1.9119,-1.9075,-1.9188,-1.9123,-1.9181,-1.9181,-1.9207,-1.9206,-1.9391,-1.9218,-1.9218,-1.9217,-1.9217,0,-1.9077,-1.9133,-1.9088,-1.9123,-1.9183,-1.9144,-1.9205,-1.9197,-1.9197,-1.923,-1.9183,-1.9216,-1.9178,-1.9207,-1.9187,-1.9243,-1.925,-1.9242,-1.9236,-1.9246,-1.9247,-1.9256,-1.9247,-1.9222,-1.9221,-1.922,-1.9219,0,-1.9234,-1.9206,-1.9264,-1.9249,-1.9247,-1.9292,-1.928,-1.9312,-1.9296,-1.9338,-1.9346,-1.9322,-1.9353,-1.9328,-1.936,-1.9346,-1.942,-1.9403,-1.9418,-1.9413,-1.9472,-1.9467,-1.9669,-1.9693,-1.9506,-1.9507,-1.9509,0,-1.9329,-1.9369,-1.9358,-1.9375,-1.9375,-1.9404,-1.9418,-1.9381,-1.9398,-1.9404,-1.9436,-1.9463,-1.9482,-1.9535,-1.9521,-1.9545,-1.9527,-1.9597,-1.9531,-1.9539,-1.9527,-1.9525,-1.9528,-1.961,-1.9612,-1.9614,-1.9616,0,-1.9499,-1.9483,-1.9504,-1.952,-1.9537,-1.9549,-1.9557,-1.9575,-1.9536,-1.9558,-1.9588,-1.9603,-1.9633,-1.966,-1.9678,-1.9678,-1.9641,-1.9636,-1.9651,-1.9661,-1.9668,-1.9664,-1.9454,-1.9632,-1.963,-1.9629,-1.9628,-1.9628,-1.9627,-1.966,-1.9656,-1.968,-1.9682,-1.969,-1.9718,-1.9704,-1.9728,-1.9748,-1.9725,-1.9761,-1.9763,-1.9783,-1.9786,-1.9815,-1.9786,-1.9808,-1.9813,-1.9818,-1.9826,-1.9663,-1.9818,-1.9818,-1.9817,-1.9817,-1.9816,0,-1.9795,-1.9788,-1.9811,-1.9822,-1.9841,-1.9802,-1.9808,-1.9827,-1.9859,-1.9862,-1.9881,-1.9915,-1.994,-1.9927,-1.9949,-1.9975,-1.9958,-1.9982,-1.9979,-1.9979,-1.9851,-1.9836,-1.9995,-1.9995,-1.9995,-1.9995,-1.9994,-1.9994,-1.9884,-1.9936,-1.9919,-1.9971,-1.9964,-1.9997,-2.0004,-2.0011,-2.0013,-2.0052,-2.0072,-2.0062,-2.0059,-2.008,-2.0101,-2.0097,-2.0107,-2.0137,-2.0126,-2.0006,-1.9989,-1.9972,-1.9957,-2.0139,-2.0139,-2.0252,-2.0253,-2.0254]},{"header":{"parameterUnit":"m.s-1","parameterCategory":1,"la1":30.2991,"la2":30.254,"lo1":-89.0895,"lo2":-89.0444,"dy":0.0017,"dx":0.0017,"nx":28,"ny":28,"refTime":"2023-08-29T21:00:00:Z","depth":0,"parameterNumber":3,"parameterNumberName":"V-component_of_WINDS"},"data":[0,0,0,0,0,0,0,0,0,0,0,0,0,0,0,0,0,0,0,0,0,0,0,0,0,0,0,0,0,0,0,0,0,0,0,0,0,0,0,0,0,0,0,0,0,0,0,0,0,0,0,0,0,0,0,0,0,0,-3.402,-3.4021,0,-3.4047,-3.4047,-3.4047,-3.4007,-3.4005,-3.4004,-3.4003,-3.4028,-3.403,-3.4032,0,0,0,0,0,0,0,0,0,0,0,0,0,-3.3932,-3.3934,-3.402,-3.4021,-3.4021,-3.4047,-3.4047,-3.4047,-3.4007,-3.4005,-3.4004,-3.4002,-3.4028,-3.403,-3.4032,0,0,0,0,0,0,0,0,0,0,0,0,0,-3.3965,-3.3934,-3.402,-3.4004,-3.4003,-3.4047,-3.4047,-3.4048,-3.4007,-3.4005,-3.4003,-3.4001,-3.4027,-3.403,-3.4033,-3.4093,0,0,-3.4042,-3.4043,0,0,0,0,0,0,0,0,-3.3964,-3.3969,-3.4006,-3.4005,-3.4004,-3.4021,-3.4025,-3.4063,-3.4008,-3.4006,-3.4003,-3.4,-3.4028,-3.403,-3.404,-3.4095,-3.4096,-3.4042,-3.4044,-3.4045,-3.4046,0,0,0,0,0,0,0,-3.3961,-3.3967,-3.4031,-3.4007,-3.4005,-3.3994,-3.3997,-3.4032,-3.4028,-3.4006,-3.4003,-3.4006,-3.4027,-3.4037,-3.404,-3.4096,-3.4042,-3.4045,-3.4046,-3.4048,-3.4199,-3.4201,0,0,0,0,0,0,-3.3961,-3.3966,-3.403,-3.4031,-3.3978,-3.3998,-3.4,-3.4018,-3.4028,-3.4027,-3.4008,-3.4005,-3.4033,-3.4037,-3.4041,-3.4111,-3.4045,-3.4048,-3.405,-3.4197,-3.42,-3.4202,0,0,0,0,0,0,-3.396,-3.3967,-3.4029,-3.3998,-3.4005,-3.4001,-3.4021,-3.4019,-3.403,-3.403,-3.4028,-3.402,-3.4032,-3.4037,-3.408,-3.4111,-3.4049,-3.4052,-3.4194,-3.4198,-3.4201,-3.4252,0,0,0,0,0,0,-3.3957,-3.3967,-3.3991,-3.3999,-3.4007,-3.4069,-3.4023,-3.4022,-3.4035,-3.4031,-3.404,-3.404,-3.403,-3.4076,-3.4083,-3.4114,-3.4054,-3.4192,-3.4196,-3.42,-3.4247,-3.4257,-3.4264,0,0,0,0,0,-3.3954,-3.4004,-3.3992,-3.4,-3.4036,-3.407,-3.4075,-3.4063,-3.4038,-3.4061,-3.4061,-3.4039,-3.4107,-3.4081,-3.4089,-3.4121,-3.419,-3.4195,-3.42,-3.4244,-3.4255,-3.4264,0,0,0,0,0,0,-3.4,-3.4005,-3.3992,-3.4046,-3.4058,-3.4063,-3.4092,-3.4076,-3.4095,-3.409,-3.4074,-3.4077,-3.4123,-3.4126,-3.4097,-3.4179,-3.4144,-3.4151,-3.4175,-3.4185,-3.4194,-3.4191,-3.4057,0,0,0,0,0,-3.4016,-3.4044,-3.4047,-3.4095,-3.4101,-3.4096,-3.411,-3.41,-3.4112,-3.4117,-3.412,-3.4131,-3.4154,-3.417,-3.4192,-3.4248,-3.4248,-3.4274,-3.4283,-3.429,-3.4295,-3.4323,-3.4333,-3.4219,-3.4219,-3.4219,0,0,-3.405,-3.4057,-3.4075,-3.4104,-3.4112,-3.414,-3.4101,-3.4132,-3.4152,-3.4122,-3.4162,-3.4165,-3.4176,-3.4226,-3.4248,-3.423,-3.4327,-3.4296,-3.4302,-3.4303,-3.4329,-3.434,-3.4349,-3.4222,-3.4221,-3.4221,0,0,-3.4126,-3.4135,-3.4174,-3.4183,-3.4196,-3.4192,-3.4202,-3.4209,-3.421,-3.425,-3.4227,-3.4251,-3.4292,-3.4301,-3.4311,-3.4389,-3.4369,-3.4397,-3.444,-3.4467,-3.4476,-3.4484,-3.451,-3.4519,-3.4402,-3.4402,-3.4403,0,-3.4167,-3.4209,-3.4197,-3.423,-3.4242,-3.4216,-3.4254,-3.4263,-3.4283,-3.4291,-3.4272,-3.4322,-3.4328,-3.4378,-3.4397,-3.4407,-3.4415,-3.4394,-3.4476,-3.4484,-3.4491,-3.4515,-3.4525,-3.4406,-3.4405,-3.4405,-3.4405,0,-3.4257,-3.4286,-3.4316,-3.4335,-3.4351,-3.4387,-3.4379,-3.4397,-3.4385,-3.4383,-3.4424,-3.443,-3.4452,-3.4463,-3.4453,-3.4511,-3.45,-3.4479,-3.4443,-3.4505,-3.4527,-3.4537,-3.441,-3.4409,-3.4408,-3.4407,0,0,-3.4362,-3.4373,-3.4384,-3.4391,-3.4403,-3.4425,-3.4459,-3.448,-3.4495,-3.4509,-3.4536,-3.4571,-3.4551,-3.4562,-3.4552,-3.4576,-3.4635,-3.4552,-3.4551,-3.4565,-3.4697,-3.4711,-3.4722,-3.4623,-3.4624,-3.4626,-3.4695,0,-3.4435,-3.4494,-3.4484,-3.454,-3.4566,-3.4541,-3.457,-3.458,-3.4579,-3.46,-3.4598,-3.4622,-3.4595,-3.4601,-3.4624,-3.4623,-3.4661,-3.4618,-3.4645,-3.4647,-3.4641,-3.4734,-3.475,-3.4815,-3.4704,-3.4706,-3.4707,0,-3.4529,-3.4546,-3.4606,-3.4611,-3.4622,-3.4648,-3.4666,-3.4687,-3.4697,-3.4694,-3.4707,-3.4692,-3.4724,-3.4689,-3.4733,-3.4704,-3.4715,-3.4716,-3.4718,-3.4718,-3.4679,-3.4735,-3.4836,-3.4845,-3.4721,-3.472,-3.4719,0,-3.4597,-3.4635,-3.4674,-3.4682,-3.4691,-3.4709,-3.4714,-3.4722,-3.4735,-3.475,-3.4758,-3.4778,-3.4788,-3.4802,-3.4793,-3.4769,-3.4837,-3.4802,-3.4834,-3.4834,-3.4847,-3.4846,-3.4949,-3.4859,-3.4858,-3.4858,-3.4858,0,-3.4679,-3.4715,-3.4704,-3.4729,-3.4768,-3.4756,-3.4795,-3.4796,-3.4804,-3.4827,-3.4807,-3.4829,-3.4816,-3.4837,-3.4829,-3.4865,-3.487,-3.4868,-3.4865,-3.4868,-3.4868,-3.4873,-3.4868,-3.4861,-3.486,-3.486,-3.4859,0,-3.476,-3.4755,-3.4796,-3.48,-3.4802,-3.4831,-3.4835,-3.4856,-3.4854,-3.4883,-3.4889,-3.4885,-3.4908,-3.49,-3.4925,-3.492,-3.4965,-3.4957,-3.4961,-3.4958,-3.499,-3.4986,-3.5098,-3.5111,-3.5014,-3.5015,-3.5016,0,-3.4812,-3.4839,-3.4846,-3.486,-3.4866,-3.489,-3.4902,-3.4891,-3.4905,-3.4918,-3.4938,-3.4959,-3.4975,-3.5013,-3.5012,-3.503,-3.5022,-3.506,-3.5024,-3.5026,-3.5019,-3.5017,-3.5018,-3.5066,-3.5067,-3.5068,-3.5069,0,-3.4903,-3.4899,-3.4918,-3.4936,-3.4952,-3.4966,-3.4978,-3.4991,-3.498,-3.4996,-3.502,-3.5033,-3.5058,-3.5078,-3.5095,-3.5098,-3.5081,-3.508,-3.5088,-3.509,-3.509,-3.5088,-3.4978,-3.5077,-3.5076,-3.5076,-3.5075,-3.5075,-3.4969,-3.4992,-3.5,-3.5022,-3.5029,-3.5041,-3.5061,-3.506,-3.508,-3.5099,-3.5091,-3.5118,-3.5126,-3.5146,-3.5152,-3.5172,-3.5157,-3.5169,-3.5172,-3.5174,-3.5177,-3.5089,-3.5175,-3.5175,-3.5175,-3.5174,-3.5174,0,-3.5057,-3.5061,-3.5082,-3.5099,-3.5115,-3.5099,-3.5111,-3.5126,-3.5149,-3.5158,-3.5175,-3.52,-3.522,-3.522,-3.5238,-3.5254,-3.5246,-3.5259,-3.5256,-3.5257,-3.5191,-3.5181,-3.5265,-3.5265,-3.5265,-3.5265,-3.5265,-3.5265,-3.5105,-3.5141,-3.5137,-3.5176,-3.518,-3.5206,-3.5214,-3.5223,-3.523,-3.526,-3.5277,-3.5277,-3.5282,-3.53,-3.5317,-3.5316,-3.5323,-3.5338,-3.5334,-3.5271,-3.5262,-3.5253,-3.5244,-3.534,-3.534,-3.5398,-3.5399,-3.5399]}]]